Regional Weather Roundup
Issued by NWS Cleveland, OH

Home | Current Version | Previous Version | Text Only | Print | Product List | Glossary Off
Versions: 1 2 3 4 5 6 7 8 9 10 11 12 13 14 15 16 17 18 19 20 21 22 23 24 25 26 27 28 29 30 31 32 33 34 35 36 37 38 39 40 41 42 43 44 45 46 47 48 49 50

000
ASUS41 KCLE 182110
RWRCLE
OHIO REGIONAL WEATHER ROUNDUP
NATIONAL WEATHER SERVICE WILMINGTON, OH
400 PM EST WED JAN 18 2017

NOTE: "FAIR" INDICATES FEW OR NO CLOUDS BELOW 12,000 FEET WITH NO
SIGNIFICANT WEATHER AND/OR OBSTRUCTIONS TO VISIBILITY.

OHZ001>008-015>018-024>027-034-035-043-044-182200-
   NORTHWEST OHIO

CITY           SKY/WX    TMP DP  RH WIND       PRES   REMARKS
DEFIANCE       CLOUDY    36  33  89 SW9       30.09S
FINDLAY        CLOUDY    38  33  82 SW12      30.09R
TOLEDO EXPRESS CLOUDY    38  36  92 W14       30.08R
TOLEDO EXEC    CLOUDY    40  37  89 SW12      30.09R
LIMA           CLOUDY    36  34  92 SW14      30.10S
$$

OHZ009>014-019>023-028>033-038-089-182200-
   NORTHEAST OHIO

CITY           SKY/WX    TMP DP  RH WIND       PRES   REMARKS
CLE-HOPKINS    CLOUDY    41  35  79 SW9       30.09S
CLE-LAKEFRONT  CLOUDY    40  36  86 SW10      30.07R
CUY CO. ARPT   CLOUDY    39  37  93 W7        30.07R
LORAIN-ELYRIA  CLOUDY    38  35  89 W10       30.08R
ASHTABULA      CLOUDY    37  36  96 W9        30.07R
AKRON-CANTON   CLOUDY    39  34  82 W9        30.06F
WOOSTER        CLOUDY    38  35  89 SW8       30.08S
MANSFIELD      CLOUDY    37  36  96 SW10      30.07S FOG
YOUNGSTOWN     DRIZZLE   38  35  89 SW7       30.05F
$$

OHZ042-051>053-060>062-070>072-077>081-182200-
  SOUTHWEST OHIO

CITY           SKY/WX    TMP DP  RH WIND       PRES   REMARKS
CINC-COVINGTON CLOUDY    41  36  82 SW6       30.14F
CINC-LUNKEN    CLOUDY    43  37  79 SW7       30.16F
HAMILTON       CLOUDY    42  37  82 SW7       30.15F
DAYTON         CLOUDY    37  35  92 SW13      30.12F
WRIGHT-PAT AFB CLOUDY    38  37  97 SW9       30.12F FOG
DAYTON GENERAL CLOUDY    39  35  86 W8        30.12F
WILMINGTON     CLOUDY    38  36  92 W9        30.12F
$$

OHZ036-037-039>041-045>050-054>059-063>069-073>076-082>088-182200-
  CENTRAL AND SOUTHEAST OHIO

CITY           SKY/WX    TMP DP  RH WIND       PRES   REMARKS
COLUMBUS       CLOUDY    41  33  73 SW8       30.13S
OSU AIRPORT    CLOUDY    39  35  86 SW12      30.12S
BOLTON FIELD   CLOUDY    37  36  93 W9        30.13S
RICKENBACK AFB   N/A     38  35  89 W9        30.14S
NEWARK         CLOUDY    40  34  79 SW10      30.12R
MARION         CLOUDY    39  34  82 SW13      30.10S
LANCASTER      CLOUDY    41  35  79 W10       30.14R
ZANESVILLE     CLOUDY    41  34  76 SW8       30.12R
NEW PHILLY     CLOUDY    41  34  76 VRB6      30.11R
$$



USA.gov is the U.S. government's official web portal to all federal, state and local government web resources and services.